Location: Great Malvern
(52.1167°N, 2.3167°W)
Time: 19:24:06
(UTC+00:00)

Cosmos 1937 Rocket - Pass Details

Date: 18 September 2020
Orbit: 747 x 779 km, 74.0° (Epoch: 21 October)

Event Time Altitude Azimuth Distance (km) Brightness Sun altitude
Rises 18:54:20 0° 186° (S) 3,234 6.7 -6.7°
Reaches altitude 10° 18:56:46 10° 182° (S) 2,307 5.9 -7.0°
Maximum altitude 19:01:48 51° 107° (ESE) 966 3.7 -7.8°
Drops below altitude 10° 19:06:50 10° 33° (NNE) 2,302 5.8 -8.5°
Sets 19:09:15 0° 29° (NNE) 3,227 6.6 -8.9°
